Weather Roundup
Issued by NWS

Home | Current Version | Previous Version | Graphics & Text | Print | Product List | Glossary Off
Versions: 1 2 3 4 5 6 7 8 9 10 11 12 13 14 15 16 17 18 19 20 21 22 23 24 25 26 27 28 29 30 31 32 33 34 35 36 37 38 39 40 41 42 43 44 45 46 47 48 49 50

000
NZUS93 KARX 252010
HRRWXR

CURRENT HOURLY OBSERVATIONS ACROSS
MUCH OF THE UPPER MISSISSIPPI VALLEY
NATIONAL WEATHER SERVICE LA CROSSE WI
300 PM CDT WED APR 25 2018


...SOUTHEAST MINNESOTA...


CITY           SKY/WX    TMP DP  RH WIND       PRES   REMARKS
ROCHESTER      FAIR      57  30  35 N9        30.12F
ROCHESTER/MAYO FAIR      56  28  34 NW9       30.11F
WINONA         FAIR      55  30  38 NW7       30.08F
AUSTIN         FAIR      55  34  44 NW8       30.11F
ALBERT LEA     FAIR      55  28  35 W6        30.12F
DODGE CENTER   FAIR      54  28  37 CALM      30.12F
PRESTON        FAIR      55  26  32 N7        30.10F
OWATONNA       FAIR      55  30  38 NW5       30.13S
FARIBAULT      NOT AVBL
$$

...ELSEWHERE IN MINNESOTA...


CITY           SKY/WX    TMP DP  RH WIND       PRES   REMARKS
MINNEAPOLIS    FAIR      58  24  27 NW6       30.12F
INTNL FALLS    FAIR      63  26  24 SW14G24   29.97F
DULUTH         FAIR      56  27  32 S10       30.06F
RED WING       FAIR      57  21  24 NE8       30.10F
REDWOOD FALLS  SUNNY     53  31  42 SW3       30.13F
MANKATO        FAIR      53  31  42 CALM      30.14F
WORTHINGTON    SUNNY     54  28  36 W3        30.15F
FAIRMONT       NOT AVBL
$$

...SOUTHWEST WISCONSIN...


CITY           SKY/WX    TMP DP  RH WIND       PRES   REMARKS
LA CROSSE      FAIR      59  31  34 W9        30.09F
PRAIRIE DU CHI FAIR      60  22  23 NW9G17    30.08F
BOSCOBEL       FAIR      64  29  26 N9        30.07F
LONE ROCK      FAIR      61  29  29 NW10      30.07F
PLATTEVILLE    FAIR      60  32  34 N7        30.06F
FORT MC COY    FAIR      58  27  31 NW3       30.09F
CAMP DOUGLAS   SUNNY     57  28  33 N7        30.08F
MAUSTON-NEW LI FAIR      57  30  35 NW9       30.08F
VIROQUA        FAIR      56  32  40 N6        30.09F
WIS DELLS      FAIR      56  23  27 NE8       30.07F
$$

...ELSEWHERE IN WISCONSIN...


CITY           SKY/WX    TMP DP  RH WIND       PRES   REMARKS
MILWAUKEE      FAIR      45  31  58 NE18G25   30.10S
MADISON        FAIR      58  29  33 N12G20    30.06F
GREEN BAY      FAIR      52  35  52 N10       30.08F
EAU CLAIRE     FAIR      56  27  32 NE3       30.10F
BLACK RVR FLS  FAIR      59  23  25 N8        30.09F
MEDFORD        FAIR      51  29  42 NW9       30.09F
WAUSAU         FAIR      53  25  33 W9        30.06F
WIS RAPIDS     FAIR      55  27  34 N13       30.10F
MARSHFIELD     FAIR      53  30  41 NE6       30.08F
RICE LAKE      FAIR      53  27  37 SW3       30.13F
$$

...NORTHEAST IOWA...


CITY           SKY/WX    TMP DP  RH WIND       PRES   REMARKS
WATERLOO       FAIR      61  31  32 N7        30.08F
DUBUQUE        FAIR      59  31  34 VRB5      30.06F
DECORAH        FAIR      57  34  41 N9G16     30.08F
MASON CITY     SUNNY     59  35  40 N9        30.13F
CHARLES CITY   FAIR      57  32  38 NW10      30.11F
OELWEIN        FAIR      59  30  33 N8G14     30.09F
$$

...ELSEWHERE IN IOWA...


CITY           SKY/WX    TMP DP  RH WIND       PRES   REMARKS
DES MOINES     PTSUNNY   64  27  24 VRB5      30.09F
IOWA CITY      FAIR      65  32  29 CALM      30.08F
FORT DODGE     SUNNY     60  31  33 N7        30.12F
MARSHALLTOWN   SUNNY     63  31  30 NE10G18   30.09F
CEDAR RAPIDS   FAIR      64  29  26 NE10G17   30.07S
$$

...NORTHERN ILLINOIS...


CITY           SKY/WX    TMP DP  RH WIND       PRES   REMARKS
CHICAGO-OHARE  FAIR      52  32  46 NE14      30.06F
CHICAGO-MIDWAY FAIR      52  32  46 NE15      30.07F
MOLINE         FAIR      64  29  26 VRB6      30.04F
ROCKFORD       FAIR      61  31  32 N14G20    30.05F
PEORIA         FAIR      63  38  39 VRB7      30.04F
$$

NOTE: "FAIR" INDICATES FEW OR NO CLOUDS BELOW 12,000 FEET WITH NO
SIGNIFICANT WEATHER AND/OR OBSTRUCTIONS TO VISIBILITY. WIND
SPEEDS ARE IN MILES-PER-HOUR.




USA.gov is the U.S. government's official web portal to all federal, state and local government web resources and services.